Flag for Venezuela Weather past 2 weeks in Caracas, Venezuela

Now
86 °F

Passing clouds.


Feels Like: 95 °F
Forecast: N/A
Wind: 6 mph from Northeast

Location: Caracas / Maiquetia Aerop. Intl. Simon Bolivar

Current Time: Jul 29, 2015 at 5:54:40 PM

Latest Report: Jul 29, 2015 at 5:30 PM


Visibility: N/A

Pressure: 29.86 "Hg (27.06 "Hg at 875m altitude)

Humidity: 70%

Dew point: 75 °F

Location of CaracasLocation

Historic Weather in Caracas — Graph

°F

Caracas temperature yesterday

Maximum temperature yesterday: 90 °F (at 10:30 AM)
Minimum temperature yesterday: 79 °F (at 1:30 AM)
Average temperature yesterday: 83 °F

Past Weeks' High & Low Weather Summary

 TemperatureHumidityPressure
High91 °F (Jul 23, 1:30 PM)94% (Jul 17, 8:30 PM)30.01 "Hg (Jul 17, 8:30 PM)
Low75 °F (Jul 16, 1:30 AM)49% (Jul 26, 1:30 PM)29.80 "Hg (Jul 15, 9:30 PM)
Average82 °F78%29.91 "Hg
* Reported Jul 14 4:30 PM — Jul 29 4:30 PM, Caracas, Weather by CustomWeather, © 2015

Note: Actual official high and low records may vary slightly from our data, if they occured in-between our weather recording intervals... More about our weather records

Advertising

Caracas weather history for previous 24 hours

 ConditionsComfort  
Time TempWeatherWind HumidityBarometerVisibility
4:30 PM
Wed, Jul 29
86 °FPassing clouds.7 mph75%29.86 "HgN/A
3:30 PM86 °FPassing clouds.7 mph70%29.89 "HgN/A
2:30 PM88 °FPassing clouds.6 mph70%29.92 "HgN/A
1:30 PM86 °FPassing clouds.5 mph75%29.92 "HgN/A
12:30 PM86 °FPassing clouds.5 mph75%29.95 "HgN/A
11:30 AM86 °FPassing clouds.3 mph75%29.95 "HgN/A
10:30 AM86 °FPassing clouds.3 mph79%29.95 "HgN/A
9:30 AM86 °FPassing clouds.3 mph79%29.95 "HgN/A
8:30 AM84 °FPassing clouds.2 mph79%29.95 "HgN/A
7:30 AM82 °FPassing clouds.1 mph79%29.92 "HgN/A
6:30 AM79 °FPassing clouds.2 mph89%29.89 "HgN/A
5:30 AM79 °FPassing clouds.No wind89%29.89 "HgN/A
4:30 AM79 °FPassing clouds.No wind94%29.89 "HgN/A
3:30 AM81 °FClear.1 mph89%29.89 "Hg10 mi
2:30 AM81 °FClear.No wind89%29.89 "Hg10 mi
1:30 AM81 °FClear.2 mph89%29.92 "Hg10 mi
12:30 AM79 °FClear.5 mph94%29.92 "Hg10 mi
11:30 PM
Tue, Jul 28
81 °FPassing clouds.5 mph89%29.92 "HgN/A
10:30 PM82 °FPassing clouds.3 mph84%29.92 "HgN/A
9:30 PM82 °FPassing clouds.3 mph84%29.92 "HgN/A
8:30 PM82 °FPassing clouds.5 mph84%29.89 "HgN/A
7:30 PM82 °FPassing clouds.5 mph84%29.86 "HgN/A
6:30 PM82 °FPassing clouds.3 mph84%29.83 "HgN/A
5:30 PM84 °FPartly sunny.5 mph79%29.83 "HgN/A
Weather by CustomWeather, © 2015

See weather overviewHow to use our weather pages